Home   Weather   Brazzaville   Past weeks

Flag for Congo Past Weather in Brazzaville, Congo — Yesterday and Last 2 Weeks

Now
77 °F

Clear.


Feels Like: 78 °F
Forecast: 73 / 89 °F
Wind: No wind

Location: Brazzaville / Maya-Maya

Current Time: Feb 25, 2017 at 9:46:36 pm

Latest Report: Feb 25, 2017 at 9:00 pm


Visibility: 5 mi

Pressure: 29.89 "Hg

Humidity: 83%

Dew Point: 72 °F

Location of BrazzavilleLocation

Past Weather in Brazzaville — Graph

°F

Brazzaville Temperature Yesterday

Maximum temperature yesterday: 81 °F (at 12:23 am)
Minimum temperature yesterday: 70 °F (at 7:43 am)
Average temperature yesterday: 75 °F

High & Low Weather Summary for the Past Weeks

 TemperatureHumidityPressure
High95 °F (Feb 21, 3:00 pm)100% (Feb 15, 5:00 am)30.04 "Hg (Feb 15, 5:00 am)
Low70 °F (Feb 16, 2:00 am)39% (Feb 21, 3:00 pm)29.71 "Hg (Feb 12, 5:00 pm)
Average79 °F80%29.89 "Hg
* Reported Feb 10 8:00 pm — Feb 25 8:00 pm, Brazzaville, Weather by CustomWeather, © 2017

Note: Actual official high and low records may vary slightly from our data, if they occured in-between our weather recording intervals... More about our weather records

Advertising

Brazzaville Weather History for the Previous 24 Hours

Scroll right to see more
 ConditionsComfort  
Time TempWeatherWind HumidityBarometerVisibility
8:00 pm
Sat, Feb 25
77 °FClear.No wind83%29.89 "Hg5 mi
7:00 pm79 °FClear.No wind79%29.86 "Hg10 mi
6:00 pm82 °FSunny.No wind66%29.83 "Hg10 mi
5:00 pm84 °FSunny.1 mph62%29.80 "Hg10 mi
4:00 pm82 °FPassing clouds.6 mph66%29.83 "HgN/A
3:00 pm81 °FPassing clouds.No wind70%29.86 "HgN/A
2:00 pm81 °FScattered clouds.2 mph70%29.89 "HgN/A
1:00 pm81 °FScattered clouds.3 mph70%29.92 "HgN/A
12:00 pm81 °FScattered clouds.5 mph70%29.95 "HgN/A
11:00 am79 °FScattered clouds.6 mph74%29.98 "HgN/A
10:00 am79 °FPartly sunny.8 mph74%30.01 "HgN/A
9:00 am75 °FScattered clouds.8 mph89%30.01 "HgN/A
8:00 am73 °FPassing clouds.1 mph89%29.98 "HgN/A
7:00 am73 °FPassing clouds.2 mph89%29.95 "HgN/A
6:00 am72 °FPassing clouds.2 mph94%29.92 "HgN/A
5:00 am72 °FClear.3 mph94%29.92 "Hg6 mi
4:00 am72 °FClear.3 mph94%29.89 "Hg6 mi
3:00 am72 °FClear.5 mph94%29.89 "Hg6 mi
2:00 am72 °FClear.3 mph94%29.92 "Hg6 mi
1:00 am73 °FClear.5 mph89%29.95 "Hg5 mi
12:00 am73 °FClear.8 mph89%29.95 "Hg5 mi
11:00 pm
Fri, Feb 24
73 °FClear.No wind89%29.95 "Hg10 mi
10:00 pm75 °FClear.No wind83%29.92 "Hg10 mi
9:00 pm75 °FClear.No wind89%29.89 "Hg10 mi
Weather by CustomWeather, © 2017

See weather overviewHow to use our weather pages